GIA536 WIII-WAOO

Flight info

Callsign GIA536
Flight time 1h 35m
Altitude 37000
Route EGUKO T9 BUTNU
Aircraft B738/M-SDE2E3FGHIRWXY/LB1

Departure

Time 2026-04-23 12:01
Airport Soekarno-Hatta International Airport (WIII)

Arrival

Time 2026-04-23 13:37
Airport Syamsudin Noor International Airport (WAOO)
Time Latitude Longitude Altitude Speed Heading
2026-04-23 11:26 -6.11426 106.67039 37 ft 0 kts 69°
2026-04-23 11:44 -6.11432 106.67026 35 ft 3 kts 65°
2026-04-23 11:44 -6.11441 106.67008 34 ft 3 kts 58°
2026-04-23 11:44 -6.11452 106.66992 34 ft 3 kts 45°
2026-04-23 11:45 -6.11467 106.66980 36 ft 3 kts 15°
2026-04-23 11:45 -6.11480 106.66979 37 ft 1 kts 334°
2026-04-23 11:45 -6.11481 106.66979 37 ft 1 kts 333°
2026-04-23 11:50 -6.11479 106.66978 37 ft 2 kts 332°
2026-04-23 11:50 -6.11449 106.66965 35 ft 7 kts 337°
2026-04-23 11:51 -6.11404 106.66945 37 ft 7 kts 338°
2026-04-23 11:51 -6.11362 106.66929 37 ft 6 kts 338°
2026-04-23 11:51 -6.11327 106.66915 37 ft 5 kts 338°
2026-04-23 11:51 -6.11297 106.66903 37 ft 4 kts 338°
2026-04-23 11:52 -6.11272 106.66893 37 ft 3 kts 338°
2026-04-23 11:52 -6.11253 106.66885 37 ft 3 kts 338°
2026-04-23 11:52 -6.11235 106.66878 37 ft 7 kts 338°
2026-04-23 11:52 -6.11160 106.66843 37 ft 14 kts 324°
2026-04-23 11:53 -6.11148 106.66760 38 ft 13 kts 250°
2026-04-23 11:53 -6.11189 106.66658 37 ft 19 kts 248°
2026-04-23 11:53 -6.11241 106.66531 38 ft 19 kts 248°
2026-04-23 11:53 -6.11287 106.66413 38 ft 17 kts 249°
2026-04-23 11:54 -6.11330 106.66303 36 ft 16 kts 249°
2026-04-23 11:54 -6.11370 106.66201 37 ft 15 kts 249°
2026-04-23 11:54 -6.11406 106.66108 37 ft 14 kts 248°
2026-04-23 11:54 -6.11442 106.66020 37 ft 13 kts 248°
2026-04-23 11:55 -6.11476 106.65938 36 ft 12 kts 248°
2026-04-23 11:55 -6.11508 106.65858 37 ft 13 kts 248°
2026-04-23 11:55 -6.11544 106.65769 35 ft 14 kts 248°
2026-04-23 11:55 -6.11579 106.65682 37 ft 13 kts 248°
2026-04-23 11:56 -6.11611 106.65602 37 ft 12 kts 248°
2026-04-23 11:56 -6.11640 106.65528 37 ft 11 kts 248°
2026-04-23 11:56 -6.11667 106.65462 37 ft 10 kts 248°
2026-04-23 11:56 -6.11690 106.65403 36 ft 8 kts 248°
2026-04-23 11:57 -6.11711 106.65352 37 ft 7 kts 248°
2026-04-23 11:57 -6.11731 106.65301 38 ft 11 kts 249°
2026-04-23 11:57 -6.11779 106.65178 38 ft 24 kts 248°
2026-04-23 11:57 -6.11839 106.65027 38 ft 23 kts 249°
2026-04-23 11:58 -6.11897 106.64878 38 ft 22 kts 249°
2026-04-23 11:58 -6.11954 106.64735 38 ft 22 kts 248°
2026-04-23 11:58 -6.12010 106.64596 37 ft 21 kts 248°
2026-04-23 11:58 -6.12064 106.64462 37 ft 20 kts 248°
2026-04-23 11:59 -6.12117 106.64331 36 ft 20 kts 248°
2026-04-23 11:59 -6.12168 106.64205 38 ft 19 kts 248°
2026-04-23 11:59 -6.12215 106.64083 38 ft 19 kts 249°
2026-04-23 11:59 -6.12255 106.63962 39 ft 18 kts 268°
2026-04-23 12:00 -6.12177 106.63888 40 ft 17 kts
2026-04-23 12:00 -6.12079 106.63954 40 ft 19 kts 55°
2026-04-23 12:00 -6.12009 106.64114 39 ft 32 kts 68°
2026-04-23 12:00 -6.11900 106.64388 39 ft 65 kts 68°
2026-04-23 12:01 -6.11650 106.65007 40 ft 125 kts 68°
2026-04-23 12:01 -6.11264 106.65972 64 ft 170 kts 68°
2026-04-23 12:01 -6.10810 106.67121 597 ft 176 kts 69°
2026-04-23 12:01 -6.10384 106.68231 1366 ft 169 kts 68°
2026-04-23 12:02 -6.09694 106.69238 1876 ft 186 kts 44°
2026-04-23 12:02 -6.08688 106.70156 2348 ft 205 kts 44°
2026-04-23 12:02 -6.07580 106.71212 2552 ft 234 kts 45°
2026-04-23 12:02 -6.06352 106.72418 2913 ft 255 kts 46°
2026-04-23 12:03 -6.05082 106.73686 3635 ft 260 kts 46°
2026-04-23 12:03 -6.03808 106.74973 4336 ft 265 kts 46°
2026-04-23 12:03 -6.02512 106.76291 5166 ft 266 kts 46°
2026-04-23 12:03 -6.01199 106.77634 5838 ft 273 kts 46°
2026-04-23 12:04 -5.99864 106.79003 6556 ft 276 kts 46°
2026-04-23 12:04 -5.98503 106.80401 7299 ft 278 kts 46°
2026-04-23 12:04 -5.97139 106.81803 7940 ft 284 kts 46°
2026-04-23 12:04 -5.95815 106.83278 8653 ft 286 kts 54°
2026-04-23 12:05 -5.94765 106.84990 9349 ft 290 kts 61°
2026-04-23 12:05 -5.93807 106.86791 9985 ft 294 kts 62°
2026-04-23 12:05 -5.92887 106.88555 10644 ft 296 kts 62°
2026-04-23 12:05 -5.91899 106.90432 11280 ft 300 kts 61°
2026-04-23 12:06 -5.90905 106.92292 11952 ft 303 kts 60°
2026-04-23 12:06 -5.89895 106.94162 12631 ft 306 kts 60°
2026-04-23 12:06 -5.87821 106.97963 13939 ft 314 kts 60°
2026-04-23 12:07 -5.86762 106.99895 14558 ft 317 kts 60°
2026-04-23 12:07 -5.85692 107.01843 15203 ft 319 kts 60°
2026-04-23 12:07 -5.84615 107.03805 15835 ft 324 kts 60°
2026-04-23 12:07 -5.83494 107.05844 15761 ft 336 kts 60°
2026-04-23 12:08 -5.82366 107.07896 15764 ft 336 kts 60°
2026-04-23 12:08 -5.81231 107.09959 15755 ft 338 kts 61°
2026-04-23 12:08 -5.80096 107.12019 15754 ft 338 kts 61°
2026-04-23 12:08 -5.78932 107.14131 15816 ft 356 kts 61°
2026-04-23 12:09 -5.77711 107.16347 16175 ft 364 kts 61°
2026-04-23 12:09 -5.76505 107.18537 17171 ft 355 kts 61°
2026-04-23 12:09 -5.75311 107.20704 17877 ft 356 kts 61°
2026-04-23 12:09 -5.74106 107.22890 18398 ft 360 kts 61°
2026-04-23 12:10 -5.72885 107.25103 18861 ft 364 kts 61°
2026-04-23 12:10 -5.71656 107.27337 19400 ft 366 kts 61°
2026-04-23 12:10 -5.70420 107.29583 19905 ft 369 kts 61°
2026-04-23 12:10 -5.69173 107.31850 20416 ft 372 kts 61°
2026-04-23 12:11 -5.67917 107.34132 20910 ft 375 kts 61°
2026-04-23 12:11 -5.67220 107.35400 21157 ft 377 kts 61°
2026-04-23 12:12 -5.66223 107.37212 21532 ft 380 kts 61°
2026-04-23 12:13 -5.64942 107.39541 22051 ft 382 kts 61°
2026-04-23 12:13 -5.63655 107.41881 22539 ft 384 kts 62°
2026-04-23 12:13 -5.62359 107.44237 23044 ft 386 kts 62°
2026-04-23 12:13 -5.61056 107.46605 23481 ft 390 kts 62°
2026-04-23 12:14 -5.59740 107.48996 23866 ft 392 kts 62°
2026-04-23 12:14 -5.58418 107.51396 24270 ft 394 kts 61°
2026-04-23 12:14 -5.57091 107.53808 24656 ft 396 kts 61°
2026-04-23 12:14 -5.55756 107.56232 25054 ft 398 kts 61°
2026-04-23 12:15 -5.54412 107.58673 25416 ft 401 kts 61°
2026-04-23 12:15 -5.53061 107.61127 25814 ft 402 kts 61°
2026-04-23 12:15 -5.51702 107.63594 26180 ft 405 kts 61°
2026-04-23 12:15 -5.50336 107.66074 26565 ft 407 kts 61°
2026-04-23 12:16 -5.48969 107.68556 27005 ft 406 kts 61°
2026-04-23 12:16 -5.47607 107.71029 27562 ft 403 kts 61°
2026-04-23 12:16 -5.46252 107.73489 28067 ft 402 kts 61°
2026-04-23 12:16 -5.44900 107.75943 28518 ft 403 kts 61°
2026-04-23 12:17 -5.42029 107.80932 28656 ft 422 kts 57°
2026-04-23 12:17 -5.38580 107.85834 28802 ft 438 kts 54°
2026-04-23 12:18 -5.34932 107.90862 28923 ft 452 kts 54°
2026-04-23 12:18 -5.31231 107.96065 29024 ft 464 kts 55°
2026-04-23 12:19 -5.27519 108.01349 29102 ft 474 kts 55°
2026-04-23 12:19 -5.23695 108.06807 29270 ft 480 kts 55°
2026-04-23 12:20 -5.21773 108.09550 29500 ft 479 kts 55°
2026-04-23 12:20 -5.19856 108.12283 29796 ft 478 kts 55°
2026-04-23 12:20 -5.17948 108.15002 30064 ft 476 kts 55°
2026-04-23 12:20 -5.16039 108.17722 30275 ft 476 kts 55°
2026-04-23 12:21 -5.14130 108.20441 30461 ft 476 kts 55°
2026-04-23 12:21 -5.12224 108.23157 30675 ft 476 kts 55°
2026-04-23 12:21 -5.10340 108.25840 30907 ft 475 kts 55°
2026-04-23 12:21 -5.08440 108.28547 31130 ft 475 kts 55°
2026-04-23 12:22 -5.06534 108.31261 31353 ft 475 kts 55°
2026-04-23 12:22 -5.04628 108.33975 31549 ft 475 kts 55°
2026-04-23 12:22 -5.02719 108.36695 31769 ft 475 kts 55°
2026-04-23 12:22 -5.00814 108.39406 32013 ft 474 kts 55°
2026-04-23 12:23 -4.98942 108.42071 32256 ft 474 kts 55°
2026-04-23 12:23 -4.97044 108.44777 32478 ft 474 kts 55°
2026-04-23 12:23 -4.95148 108.47483 32681 ft 474 kts 55°
2026-04-23 12:23 -4.93248 108.50195 32916 ft 474 kts 55°
2026-04-23 12:24 -4.91351 108.52902 33145 ft 474 kts 55°
2026-04-23 12:24 -4.89453 108.55610 33379 ft 474 kts 55°
2026-04-23 12:24 -4.87557 108.58316 33588 ft 475 kts 55°
2026-04-23 12:24 -4.85659 108.61023 33819 ft 475 kts 55°
2026-04-23 12:25 -4.83762 108.63729 34041 ft 474 kts 55°
2026-04-23 12:25 -4.81866 108.66432 34316 ft 472 kts 56°
2026-04-23 12:25 -4.79986 108.69114 34641 ft 469 kts 55°
2026-04-23 12:25 -4.78115 108.71781 34916 ft 467 kts 55°
2026-04-23 12:26 -4.76247 108.74445 35148 ft 467 kts 55°
2026-04-23 12:26 -4.74382 108.77105 35370 ft 466 kts 55°
2026-04-23 12:26 -4.72543 108.79725 35624 ft 464 kts 55°
2026-04-23 12:26 -4.70741 108.82395 35936 ft 461 kts 60°
2026-04-23 12:27 -4.69244 108.85231 36182 ft 459 kts 64°
2026-04-23 12:27 -4.67882 108.88134 36378 ft 459 kts 66°
2026-04-23 12:27 -4.66563 108.91060 36548 ft 460 kts 66°
2026-04-23 12:27 -4.65248 108.93977 36772 ft 459 kts 66°
2026-04-23 12:28 -4.62558 108.99813 36847 ft 461 kts 65°
2026-04-23 12:28 -4.59851 109.05541 36841 ft 458 kts 65°
2026-04-23 12:29 -4.57129 109.11245 36846 ft 455 kts 65°
2026-04-23 12:29 -4.54400 109.16961 36851 ft 453 kts 65°
2026-04-23 12:30 -4.51694 109.22630 36853 ft 452 kts 65°
2026-04-23 12:30 -4.48982 109.28316 36853 ft 452 kts 65°
2026-04-23 12:31 -4.46261 109.34019 36854 ft 452 kts 65°
2026-04-23 12:31 -4.43555 109.39689 36854 ft 454 kts 65°
2026-04-23 12:32 -4.40827 109.45404 36854 ft 455 kts 65°
2026-04-23 12:32 -4.38553 109.50166 36857 ft 456 kts 65°
2026-04-23 12:33 -4.35807 109.55917 36851 ft 457 kts 65°
2026-04-23 12:33 -4.33056 109.61675 36852 ft 458 kts 65°
2026-04-23 12:34 -4.30308 109.67427 36853 ft 458 kts 65°
2026-04-23 12:34 -4.27568 109.73160 36850 ft 458 kts 65°
2026-04-23 12:35 -4.24814 109.78922 36854 ft 457 kts 65°
2026-04-23 12:35 -4.22064 109.84675 36854 ft 457 kts 65°
2026-04-23 12:36 -4.19335 109.90381 36855 ft 456 kts 65°
2026-04-23 12:36 -4.16588 109.96124 36854 ft 456 kts 65°
2026-04-23 12:37 -4.13873 110.01799 36855 ft 456 kts 65°
2026-04-23 12:37 -4.11150 110.07490 36855 ft 455 kts 65°
2026-04-23 12:38 -4.08411 110.13213 36854 ft 455 kts 65°
2026-04-23 12:38 -4.05671 110.18937 36853 ft 455 kts 65°
2026-04-23 12:39 -4.02931 110.24659 36856 ft 455 kts 65°
2026-04-23 12:39 -4.00187 110.30390 36856 ft 456 kts 65°
2026-04-23 12:40 -3.97465 110.36075 36855 ft 456 kts 65°
2026-04-23 12:40 -3.94718 110.41809 36855 ft 456 kts 65°
2026-04-23 12:41 -3.91972 110.47548 36861 ft 456 kts 65°
2026-04-23 12:41 -3.89229 110.53282 36855 ft 456 kts 65°
2026-04-23 12:42 -3.86509 110.58966 36853 ft 455 kts 65°
2026-04-23 12:42 -3.83770 110.64689 36854 ft 454 kts 65°
2026-04-23 12:43 -3.81035 110.70401 36857 ft 454 kts 65°
2026-04-23 12:43 -3.78321 110.76072 36860 ft 454 kts 65°
2026-04-23 12:44 -3.75593 110.81767 36861 ft 453 kts 65°
2026-04-23 12:44 -3.72865 110.87463 36860 ft 453 kts 65°
2026-04-23 12:45 -3.70136 110.93159 36861 ft 453 kts 65°
2026-04-23 12:45 -3.67408 110.98853 36860 ft 453 kts 65°
2026-04-23 12:46 -3.64706 111.04491 36860 ft 453 kts 65°
2026-04-23 12:46 -3.62000 111.10135 36860 ft 453 kts 65°
2026-04-23 12:47 -3.59273 111.15824 36861 ft 453 kts 65°
2026-04-23 12:47 -3.56537 111.21528 36860 ft 453 kts 65°
2026-04-23 12:48 -3.53804 111.27226 36856 ft 454 kts 65°
2026-04-23 12:48 -3.51070 111.32926 36861 ft 454 kts 65°
2026-04-23 12:49 -3.48351 111.38594 36860 ft 455 kts 65°
2026-04-23 12:49 -3.45608 111.44310 36866 ft 455 kts 65°
2026-04-23 12:50 -3.42858 111.50040 36866 ft 456 kts 65°
2026-04-23 12:50 -3.40122 111.55738 36866 ft 456 kts 65°
2026-04-23 12:51 -3.37370 111.61470 36865 ft 456 kts 65°
2026-04-23 12:51 -3.34616 111.67204 36867 ft 456 kts 65°
2026-04-23 12:52 -3.31867 111.72928 36865 ft 456 kts 65°
2026-04-23 12:52 -3.29134 111.78617 36866 ft 456 kts 65°
2026-04-23 12:53 -3.28903 111.79099 36870 ft 456 kts 65°
2026-04-23 12:56 -3.26989 111.83082 36862 ft 456 kts 65°
2026-04-23 12:56 -3.24421 111.88858 36868 ft 456 kts 68°
2026-04-23 12:57 -3.22011 111.94743 36868 ft 456 kts 68°
2026-04-23 12:57 -3.19619 112.00554 36868 ft 456 kts 68°
2026-04-23 12:58 -3.17179 112.06394 36869 ft 457 kts 68°
2026-04-23 12:58 -3.14714 112.12252 36868 ft 457 kts 68°
2026-04-23 12:59 -3.12244 112.18116 36872 ft 456 kts 68°
2026-04-23 12:59 -3.09780 112.23967 36868 ft 456 kts 68°
2026-04-23 13:00 -3.08544 112.26902 38424 ft 457 kts 67°
2026-04-23 13:00 -3.07324 112.29801 36457 ft 459 kts 67°
2026-04-23 13:00 -3.06098 112.32710 36572 ft 445 kts 68°
2026-04-23 13:00 -3.04903 112.35549 36715 ft 443 kts 68°
2026-04-23 13:01 -3.02495 112.41267 36839 ft 448 kts 68°
2026-04-23 13:01 -3.00058 112.47052 36873 ft 455 kts 67°
2026-04-23 13:02 -2.97594 112.52900 36872 ft 458 kts 67°
2026-04-23 13:02 -2.95118 112.58775 36874 ft 459 kts 67°
2026-04-23 13:03 -2.92639 112.64659 36872 ft 459 kts 67°
2026-04-23 13:03 -2.90164 112.70528 36873 ft 458 kts 67°
2026-04-23 13:04 -2.87691 112.76395 36875 ft 457 kts 67°
2026-04-23 13:04 -2.85220 112.82254 36873 ft 456 kts 68°
2026-04-23 13:05 -2.82770 112.88064 36881 ft 456 kts 68°
2026-04-23 13:05 -2.80305 112.93908 36876 ft 456 kts 68°
2026-04-23 13:06 -2.76628 113.02624 36880 ft 456 kts 68°
2026-04-23 13:07 -2.74162 113.08468 36882 ft 456 kts 68°
2026-04-23 13:07 -2.71695 113.14315 36886 ft 456 kts 68°
2026-04-23 13:08 -2.69228 113.20159 36876 ft 456 kts 68°
2026-04-23 13:08 -2.66765 113.25996 36878 ft 455 kts 68°
2026-04-23 13:09 -2.64306 113.31822 36874 ft 455 kts 68°
2026-04-23 13:09 -2.61897 113.37664 36863 ft 454 kts 74°
2026-04-23 13:09 -2.61429 113.40762 36895 ft 451 kts 90°
2026-04-23 13:10 -2.61775 113.43870 36859 ft 451 kts 105°
2026-04-23 13:10 -2.63908 113.49769 36870 ft 451 kts 110°
2026-04-23 13:11 -2.66200 113.55615 36870 ft 452 kts 110°
2026-04-23 13:11 -2.68461 113.61491 36873 ft 452 kts 110°
2026-04-23 13:12 -2.70688 113.67381 36869 ft 453 kts 110°
2026-04-23 13:12 -2.72907 113.73284 36868 ft 453 kts 110°
2026-04-23 13:13 -2.75126 113.79189 36865 ft 454 kts 109°
2026-04-23 13:13 -2.77349 113.85102 36865 ft 454 kts 109°
2026-04-23 13:14 -2.79572 113.91014 36862 ft 454 kts 110°
2026-04-23 13:14 -2.80686 113.93977 36634 ft 458 kts 110°
2026-04-23 13:14 -2.81812 113.96974 36103 ft 460 kts 110°
2026-04-23 13:14 -2.82933 113.99957 35458 ft 458 kts 110°
2026-04-23 13:15 -2.84033 114.02882 34799 ft 459 kts 110°
2026-04-23 13:15 -2.85157 114.05872 34082 ft 461 kts 110°
2026-04-23 13:15 -2.85907 114.07867 33559 ft 463 kts 109°
2026-04-23 13:15 -2.87412 114.11872 32508 ft 465 kts 109°
2026-04-23 13:16 -2.88550 114.14901 31739 ft 466 kts 109°
2026-04-23 13:16 -2.89692 114.17943 30915 ft 469 kts 109°
2026-04-23 13:16 -2.90842 114.21003 30083 ft 471 kts 109°
2026-04-23 13:16 -2.91998 114.24083 29089 ft 474 kts 109°
2026-04-23 13:17 -2.93161 114.27178 28114 ft 475 kts 110°
2026-04-23 13:17 -2.94323 114.30274 27146 ft 476 kts 110°
2026-04-23 13:17 -2.95488 114.33375 26147 ft 477 kts 110°
2026-04-23 13:17 -2.96656 114.36488 25313 ft 476 kts 110°
2026-04-23 13:18 -2.97813 114.39570 24542 ft 472 kts 110°
2026-04-23 13:18 -2.98576 114.41601 24058 ft 469 kts 110°
2026-04-23 13:18 -3.00103 114.45671 23007 ft 465 kts 110°
2026-04-23 13:18 -3.01172 114.48700 22206 ft 460 kts 106°
2026-04-23 13:19 -3.01743 114.50731 21708 ft 456 kts 104°
2026-04-23 13:19 -3.02482 114.53792 20983 ft 450 kts 102°
2026-04-23 13:19 -3.03173 114.56833 20275 ft 445 kts 102°
2026-04-23 13:19 -3.03870 114.59836 19561 ft 441 kts 103°
2026-04-23 13:20 -3.04588 114.62806 18847 ft 438 kts 103°
2026-04-23 13:20 -3.05320 114.65748 18152 ft 434 kts 103°
2026-04-23 13:20 -3.06058 114.68672 17365 ft 431 kts 103°
2026-04-23 13:20 -3.07022 114.72488 16424 ft 424 kts 103°
2026-04-23 13:21 -3.07574 114.74397 15961 ft 421 kts 110°
2026-04-23 13:21 -3.09041 114.76906 15324 ft 418 kts 128°
2026-04-23 13:21 -3.10897 114.79118 14698 ft 413 kts 129°
2026-04-23 13:21 -3.12700 114.81344 14070 ft 410 kts 128°
2026-04-23 13:22 -3.14461 114.83569 13418 ft 406 kts 127°
2026-04-23 13:22 -3.16191 114.85771 12915 ft 397 kts 127°
2026-04-23 13:22 -3.17844 114.87875 12664 ft 372 kts 127°
2026-04-23 13:22 -3.19394 114.89843 12510 ft 348 kts 127°
2026-04-23 13:23 -3.20848 114.91688 12364 ft 328 kts 127°
2026-04-23 13:23 -3.22213 114.93418 12038 ft 316 kts 127°
2026-04-23 13:23 -3.23569 114.95139 11730 ft 305 kts 127°
2026-04-23 13:23 -3.24840 114.96752 11467 ft 294 kts 127°
2026-04-23 13:24 -3.26089 114.98339 11138 ft 287 kts 127°
2026-04-23 13:24 -3.27320 114.99903 10736 ft 287 kts 127°
2026-04-23 13:24 -3.28532 115.01442 10471 ft 286 kts 127°
2026-04-23 13:24 -3.29756 115.02996 10235 ft 283 kts 127°
2026-04-23 13:25 -3.30970 115.04537 9965 ft 282 kts 127°
2026-04-23 13:25 -3.32315 115.05956 9640 ft 283 kts 145°
2026-04-23 13:25 -3.34147 115.06638 9333 ft 284 kts 173°
2026-04-23 13:25 -3.36108 115.06529 9065 ft 283 kts 190°
2026-04-23 13:26 -3.38030 115.06120 8767 ft 282 kts 191°
2026-04-23 13:26 -3.39948 115.05707 8464 ft 282 kts 191°
2026-04-23 13:26 -3.41861 115.05309 8177 ft 280 kts 191°
2026-04-23 13:26 -3.43751 115.04923 7855 ft 275 kts 190°
2026-04-23 13:27 -3.45626 115.04540 7389 ft 275 kts 193°
2026-04-23 13:27 -3.47332 115.03710 6933 ft 275 kts 222°
2026-04-23 13:27 -3.48389 115.02166 6660 ft 268 kts 251°
2026-04-23 13:27 -3.48695 115.00372 6474 ft 256 kts 273°
2026-04-23 13:28 -3.48466 114.98660 6336 ft 244 kts 281°
2026-04-23 13:28 -3.48128 114.96964 5812 ft 253 kts 282°
2026-04-23 13:28 -3.47778 114.95227 5334 ft 256 kts 282°
2026-04-23 13:28 -3.47424 114.93460 4689 ft 265 kts 281°
2026-04-23 13:29 -3.47071 114.91615 4045 ft 273 kts 281°
2026-04-23 13:29 -3.46731 114.89795 3952 ft 261 kts 281°
2026-04-23 13:29 -3.46402 114.88023 3634 ft 261 kts 280°
2026-04-23 13:29 -3.46079 114.86172 2989 ft 277 kts 279°
2026-04-23 13:30 -3.45765 114.84282 2655 ft 277 kts 280°
2026-04-23 13:30 -3.45419 114.82377 2282 ft 278 kts 279°
2026-04-23 13:30 -3.45061 114.80519 2230 ft 266 kts 285°
2026-04-23 13:30 -3.44201 114.78948 2242 ft 257 kts 319°
2026-04-23 13:31 -3.42636 114.78149 2273 ft 257 kts 349°
2026-04-23 13:31 -3.40824 114.78140 2754 ft 264 kts 13°
2026-04-23 13:31 -3.39147 114.78880 3693 ft 266 kts 38°
2026-04-23 13:31 -3.37963 114.80290 4474 ft 269 kts 64°
2026-04-23 13:32 -3.37553 114.82099 4859 ft 270 kts 93°
2026-04-23 13:32 -3.38031 114.83899 4974 ft 270 kts 119°
2026-04-23 13:32 -3.39311 114.85257 5002 ft 273 kts 148°
2026-04-23 13:32 -3.41101 114.85868 5013 ft 275 kts 171°
2026-04-23 13:33 -3.42930 114.86365 4982 ft 273 kts 147°
2026-04-23 13:33 -3.44152 114.87719 4988 ft 260 kts 112°
2026-04-23 13:33 -3.44783 114.89364 4951 ft 248 kts 121°
2026-04-23 13:33 -3.46033 114.90561 4281 ft 263 kts 153°
2026-04-23 13:34 -3.47921 114.90889 3154 ft 296 kts 189°
2026-04-23 13:34 -3.49754 114.89961 2790 ft 297 kts 226°
2026-04-23 13:34 -3.50779 114.88218 2387 ft 298 kts 257°
2026-04-23 13:34 -3.50672 114.86231 2106 ft 282 kts 290°
2026-04-23 13:35 -3.49572 114.84733 1789 ft 258 kts 321°
2026-04-23 13:35 -3.48204 114.83666 1473 ft 242 kts 320°
2026-04-23 13:35 -3.47033 114.82551 1215 ft 223 kts 312°
2026-04-23 13:35 -3.46141 114.81384 949 ft 206 kts 301°
2026-04-23 13:36 -3.45495 114.80148 714 ft 191 kts 296°
2026-04-23 13:36 -3.44945 114.79009 462 ft 177 kts 295°
2026-04-23 13:36 -3.44552 114.77922 220 ft 158 kts 283°
2026-04-23 13:36 -3.44356 114.76909 75 ft 137 kts 283°
2026-04-23 13:37 -3.44240 114.76290 76 ft 37 kts 281°
2026-04-23 13:37 -3.44226 114.76223 56 ft 11 kts 282°
2026-04-23 13:37 -3.44208 114.76130 73 ft 15 kts 280°
2026-04-23 13:37 -3.44194 114.76052 72 ft 7 kts 281°
2026-04-23 13:38 -3.44185 114.76004 75 ft 7 kts 281°
2026-04-23 13:38 -3.44158 114.75957 72 ft 9 kts 326°
2026-04-23 13:38 -3.44095 114.75952 73 ft 10 kts
2026-04-23 13:38 -3.44030 114.75963 74 ft 9 kts
2026-04-23 13:39 -3.43991 114.75970 71 ft 3 kts 11°
2026-04-23 13:39 -3.43956 114.75977 68 ft 8 kts
2026-04-23 13:39 -3.43900 114.75967 71 ft 8 kts 356°
2026-04-23 13:39 -3.43860 114.75971 74 ft 2 kts
2026-04-23 13:40 -3.43844 114.75974 66 ft 1 kts 10°
2026-04-23 13:40 -3.43839 114.75975 67 ft 1 kts 10°
2026-04-23 13:40 -3.43835 114.75976 67 ft 0 kts 10°
2026-04-23 13:43 -3.23197 114.94668 11803 ft 309 kts 127°
2026-04-23 13:44 -3.23158 114.94501 11818 ft 308 kts 101°
2026-04-23 13:44 -3.24514 114.96222 11566 ft 295 kts 110°
2026-04-23 13:44 -3.46999 114.82621 1247 ft 3 kts 123°
2026-04-23 13:44 -3.46223 114.81519 964 ft 211 kts 303°
2026-04-23 13:45 -3.45807 114.80806 429 ft 220 kts 298°
2026-04-23 13:45 -3.45572 114.80438 90 ft 0 kts 139°